This demonstration page uses our WeatherBlox Daily Observations layout. Learn more.

Hourly Observations for October 16, 2019

Temp ( °F °C ) Dew Point ( °F °C ) Humidity (%) Winds ( mph kmh ) Pressure ( in mb ) Visibility ( mi km ) Precip ( " mm )
12:39 am 00:39 Cloudy 46 7.8 35 1.7 66 66 N 23 37 30.27 1025 10 16.09344 0 0
12:50 am 00:50 Cloudy 46 8 36 2 66 66 N 20 31 30.27 1025 10 16.09344 0 0
12:54 am 00:54 Cloudy 46 7.8 35 1.7 66 66 N 17 28 30.21 1023 10 16.09344 0 0
1:20 am 01:20 Cloudy 45 7.2 35 1.7 68 68 N 16 26 30.27 1025 10 16.09344 0 0
1:54 am 01:54 Cloudy 45 7.2 35 1.7 68 68 N 12 19 30.21 1023 10 16.09344 0 0
2:54 am 02:54 Cloudy 45 7.2 34 1.1 66 66 N 16 26 30.24 1024 10 16.09344 0 0
3:20 am 03:20 Mostly Cloudy 44 6.7 34 1.1 68 68 NNW 8 13 30.27 1025 10 16.09344 0 0
3:41 am 03:41 Cloudy 44 6.7 34 1.1 68 68 N 9 15 30.27 1025 10 16.09344 0 0
3:54 am 03:54 Cloudy 44 6.7 35 1.7 71 71 N 9 15 30.24 1024 10 16.09344 0 0
4:54 am 04:54 Cloudy 44 6.7 34 1.1 68 68 N 13 20 30.21 1023 10 16.09344 0 0
5:54 am 05:54 Cloudy 43 6.1 34 1.1 71 71 NW 9 15 30.24 1024 10 16.09344 0 0
6:54 am 06:54 Cloudy 41 5 33 0.6 73 73 WNW 8 13 30.24 1024 10 16.09344 0 0
7:19 am 07:19 Partly Cloudy 39 3.9 32 0 76 76 NW 9 15 30.3 1026 10 16.09344 0 0
7:54 am 07:54 Sunny 37 2.8 32 0 82 82 NW 7 11 30.24 1024 10 16.09344 0 0
8:54 am 08:54 Sunny 39 3.9 33 0.6 79 79 NW 5 7 30.24 1024 10 16.09344 0 0
9:54 am 09:54 Sunny 45 7.2 33 0.6 63 63 N 9 15 30.24 1024 10 16.09344 0 0
10:54 am 10:54 Sunny 48 8.9 34 1.1 58 58 N 6 9 30.24 1024 10 16.09344 0 0
11:54 am 11:54 Partly Cloudy 49 9.4 35 1.7 59 59 WNW 7 11 30.24 1024 10 16.09344 0 0
12:54 pm 12:54 Sunny 51 10.6 34 1.1 52 52 W 6 9 30.21 1023 10 16.09344 0 0
1:54 pm 13:54 Sunny 52 11.1 35 1.7 53 53 Calm 30.18 1022 10 16.09344 0 0
2:54 pm 14:54 Sunny 55 12.8 36 2.2 49 49 S 7 11 30.15 1021 10 16.09344 0 0
3:54 pm 15:54 Sunny 57 13.9 35 1.7 44 44 Calm 30.12 1020 10 16.09344 0 0
4:54 pm 16:54 Sunny 57 13.9 34 1.1 42 42 Calm 30.09 1019 10 16.09344 0 0
5:54 pm 17:54 Sunny 55 12.8 37 2.8 51 51 S 7 11 30.09 1019 10 16.09344 0 0
6:54 pm 18:54 Clear 52 11.1 35 1.7 53 53 S 3 6 30.06 1018 10 16.09344 0 0
7:54 pm 19:54 Clear 48 8.9 37 2.8 66 66 SSE 6 9 30.06 1018 10 16.09344 0 0
8:54 pm 20:54 Clear 48 8.9 37 2.8 66 66 SSE 6 9 30.06 1018 10 16.09344 0 0
9:54 pm 21:54 Clear 45 7.2 36 2.2 71 71 SSE 7 11 30.06 1018 10 16.09344 0 0
10:54 pm 22:54 Clear 43 6.1 35 1.7 74 74 S 3 6 30.06 1018 10 16.09344 0 0
11:54 pm 23:54 Clear 41 5 35 1.7 79 79 S 6 9 30.03 1017 10 16.09344 0 0

Powered by AerisWeather